Weather History for YSSY - March, 2013

Change the Weather History Date:

Saturday, March 9, 2013

  Actual Average Record
Temperature  
Mean Temperature 77 °F -  
Max Temperature 84 °F 76 °F 104 °F (2004)
Min Temperature 70 °F 61 °F 60 °F (1998)
Cooling Degree Days 12    
Growing Degree Days 27 (Base 50)    
Moisture  
Dew Point 62 °F    
Average Humidity 59    
Maximum Humidity 78    
Minimum Humidity 33    
Precipitation  
Precipitation 0.00 in 0.18 in - ()
Sea Level Pressure  
Sea Level Pressure 30.11 in    
Wind  
Wind Speed 10 mph ()    
Max Wind Speed 22 mph    
Max Gust Speed -    
Visibility 7.5 miles    
Events Rain    
Averages and records for this station are not official NWS values.
T = Trace of Precipitation, MM = Missing Value Source: Averaged Metar Reports

Daily Weather History Graph

Daily Weather History Graph

Search for Another Location

Airport or City:

Trip Planner

Search our weather history database for the weather conditions in past years. The results will help you decide how hot, cold, wet, or windy it might be!

Date:

Astronomy

Mar. 09, 2013 Rise Set
Actual Time 6:49 AM AEDT 7:21 PM AEDT
Civil Twilight 6:24 AM AEDT 7:46 PM AEDT
Nautical Twilight 5:54 AM AEDT 8:16 PM AEDT
Astronomical Twilight 5:24 AM AEDT 8:46 PM AEDT
Moon 3:49 AM AEDT (3/9) 5:24 PM AEDT (3/9)
Length of Visible Light 13h 22m
Length of Day
12h 32m
Waning Crescent, 9% of the Moon is Illuminated
Mar 9
Waning Crescent
Mar 12
New
Mar 20
First Quarter
Mar 27
Full
Apr 3
Last Quarter

Hourly Weather History & Observations

Time (AEDT) Temp. Heat Index Dew Point Humidity Pressure Visibility Wind Dir Wind Speed Gust Speed Precip Events Conditions
12:00 AM 73 °F - 62 °F 59% 30.18 in 25 mi NE 9.2 mph - -   Partly Cloudy
12:00 AM 73.4 °F - 60.8 °F 65% 30.15 in 6.2 mi NE 9.2 mph - N/A   Scattered Clouds
12:30 AM 73.4 °F - 62.6 °F 69% 30.15 in 6.2 mi NE 6.9 mph - N/A   Mostly Cloudy
1:00 AM 73.4 °F - 62.6 °F 69% 30.15 in 6.2 mi NE 6.9 mph - N/A   Scattered Clouds
1:30 AM 73.4 °F - 62.6 °F 69% 30.15 in 6.2 mi NE 6.9 mph - N/A   Scattered Clouds
2:00 AM 73 °F - 64 °F 67% 30.16 in - North 6.9 mph - -  
2:00 AM 73.4 °F - 64.4 °F 73% 30.15 in 6.2 mi North 6.9 mph - N/A   Partly Cloudy
2:30 AM 73.4 °F - 64.4 °F 73% 30.15 in 5.6 mi North 9.2 mph - N/A Rain Light Rain Showers
3:00 AM 70 °F - 63 °F 71% 30.15 in 9 mi ENE 12.7 mph - - Rain Light Rain Showers
3:00 AM 69.8 °F - 62.6 °F 78% 30.12 in 6.2 mi ENE 12.7 mph - N/A Rain Light Rain Showers
3:30 AM 71.6 °F - 60.8 °F 69% 30.12 in 6.2 mi ENE 10.4 mph - N/A   Mostly Cloudy
4:00 AM 73.4 °F - 60.8 °F 65% 30.12 in 6.2 mi NE 8.1 mph - N/A   Mostly Cloudy
4:30 AM 71.6 °F - 62.6 °F 73% 30.12 in 6.2 mi NE 6.9 mph - N/A   Mostly Cloudy
5:00 AM 71 °F - 63 °F 70% 30.14 in - NE 5.8 mph - -  
5:00 AM 71.6 °F - 62.6 °F 73% 30.12 in - NE 5.8 mph - N/A   Clear
5:30 AM 71.6 °F - 64.4 °F 78% 30.12 in - NE 4.6 mph - N/A   Clear
6:00 AM 71 °F - 64 °F 73% 30.13 in 16 mi NE 3.5 mph - -   Partly Cloudy
6:00 AM 71.6 °F - 64.4 °F 78% 30.12 in 6.2 mi NE 3.5 mph - N/A   Mostly Cloudy
6:30 AM 73.4 °F - 64.4 °F 73% 30.12 in 6.2 mi NNE 4.6 mph - N/A   Mostly Cloudy
7:00 AM 73.4 °F - 64.4 °F 73% 30.12 in 6.2 mi North 5.8 mph - N/A   Mostly Cloudy
7:30 AM 73.4 °F - 64.4 °F 73% 30.12 in 6.2 mi North 5.8 mph - N/A   Mostly Cloudy
8:00 AM 75 °F - 62 °F 55% 30.15 in - NNE 6.9 mph - -  
8:00 AM 75.2 °F - 62.6 °F 65% 30.12 in 6.2 mi NNE 6.9 mph - N/A   Mostly Cloudy
8:30 AM 75.2 °F - 62.6 °F 65% 30.15 in 6.2 mi North 6.9 mph - N/A   Mostly Cloudy
9:00 AM 77 °F - 63 °F 53% 30.16 in 16 mi NNW 6.9 mph - -   Partly Cloudy
9:00 AM 77.0 °F - 62.6 °F 61% 30.15 in 6.2 mi NNW 6.9 mph - N/A   Mostly Cloudy
9:30 AM 78.8 °F - 62.6 °F 57% 30.15 in 6.2 mi North 9.2 mph - N/A   Mostly Cloudy
10:00 AM 78.8 °F - 62.6 °F 57% 30.15 in 6.2 mi NNE 10.4 mph - N/A   Mostly Cloudy
10:30 AM 78.8 °F - 62.6 °F 57% 30.15 in 6.2 mi NNE 9.2 mph - N/A   Mostly Cloudy
11:00 AM 80 °F - 60 °F 41% 30.17 in - North 9.2 mph - -  
11:00 AM 80.6 °F 81.5 °F 60.8 °F 51% 30.15 in 6.2 mi North 9.2 mph - N/A   Scattered Clouds
11:30 AM 82.4 °F 82.5 °F 59.0 °F 45% 30.15 in 6.2 mi North 9.2 mph - N/A   Scattered Clouds
12:00 PM 81 °F - 58 °F 35% 30.15 in 16 mi North 8.1 mph - -   Mostly Cloudy
12:00 PM 80.6 °F 80.8 °F 57.2 °F 45% 30.12 in 6.2 mi North 8.1 mph - N/A   Mostly Cloudy
12:30 PM 80.6 °F 81.5 °F 60.8 °F 51% 30.12 in 6.2 mi NE 10.4 mph - N/A   Scattered Clouds
1:00 PM 84.2 °F 83.8 °F 59.0 °F 42% 30.12 in 6.2 mi NE 11.5 mph - N/A   Scattered Clouds
1:30 PM 84.2 °F 83.8 °F 59.0 °F 42% 30.09 in 6.2 mi NE 15.0 mph - N/A   Scattered Clouds
2:00 PM 83 °F - 58 °F 33% 30.11 in - NE 18.4 mph - -  
2:00 PM 82.4 °F 82.5 °F 59.0 °F 45% 30.09 in 6.2 mi NE 18.4 mph - N/A   Scattered Clouds
2:30 PM 82.4 °F 81.7 °F 55.4 °F 39% 30.09 in 6.2 mi NE 18.4 mph - N/A   Scattered Clouds
3:00 PM 81 °F - 58 °F 35% 30.09 in 19 mi NE 19.6 mph - -   Partly Cloudy
3:00 PM 80.6 °F 80.8 °F 57.2 °F 45% 30.06 in 6.2 mi NE 19.6 mph - N/A   Scattered Clouds
3:30 PM 82.4 °F 81.7 °F 55.4 °F 39% 30.06 in 6.2 mi NE 19.6 mph - N/A   Scattered Clouds
4:00 PM 80.6 °F 81.1 °F 59.0 °F 48% 30.06 in 6.2 mi NE 19.6 mph - N/A   Scattered Clouds
4:30 PM 82.4 °F 82.5 °F 59.0 °F 45% 30.06 in 6.2 mi NE 19.6 mph - N/A   Scattered Clouds
5:00 PM 82 °F - 60 °F 37% 30.07 in - NNE 21.9 mph - -  
5:00 PM 82.4 °F 82.9 °F 60.8 °F 48% 30.06 in 6.2 mi NNE 21.9 mph - N/A   Scattered Clouds
5:30 PM 78.8 °F - 62.6 °F 57% 30.06 in 6.2 mi NE 21.9 mph - N/A   Mostly Cloudy
6:00 PM 78 °F - 63 °F 51% 30.07 in 16 mi NE 20.7 mph - -   Partly Cloudy
6:00 PM 77.0 °F - 62.6 °F 61% 30.06 in 6.2 mi NE 20.7 mph - N/A   Mostly Cloudy
6:30 PM 77.0 °F - 62.6 °F 61% 30.06 in 6.2 mi NE 19.6 mph - N/A   Mostly Cloudy
7:00 PM 77.0 °F - 62.6 °F 61% 30.06 in 6.2 mi NE 17.3 mph - N/A   Mostly Cloudy
7:30 PM 75.2 °F - 64.4 °F 69% 30.06 in 6.2 mi NE 17.3 mph - N/A   Mostly Cloudy
8:00 PM 76 °F - 64 °F 58% 30.10 in - NE 16.1 mph - -  
8:00 PM 75.2 °F - 64.4 °F 69% 30.09 in 6.2 mi NE 16.1 mph - N/A   Mostly Cloudy
8:30 PM 75.2 °F - 64.4 °F 69% 30.09 in 6.2 mi NE 15.0 mph - N/A   Mostly Cloudy
9:00 PM 76 °F - 63 °F 56% 30.11 in 19 mi NNE 12.7 mph - -   Partly Cloudy
9:00 PM 77.0 °F - 62.6 °F 61% 30.09 in 6.2 mi NNE 12.7 mph - N/A   Mostly Cloudy
9:30 PM 75.2 °F - 62.6 °F 65% 30.09 in 6.2 mi NNE 11.5 mph - N/A   Mostly Cloudy
10:00 PM 77.0 °F - 62.6 °F 61% 30.09 in 6.2 mi NNE 12.7 mph - N/A   Mostly Cloudy
10:30 PM 75.2 °F - 64.4 °F 69% 30.09 in 6.2 mi NNE 12.7 mph - N/A   Scattered Clouds
11:00 PM 76 °F - 64 °F 58% 30.12 in - NNE 13.8 mph - -  
11:00 PM 75.2 °F - 64.4 °F 69% 30.09 in 6.2 mi NNE 13.8 mph - N/A   Partly Cloudy
11:30 PM 75.2 °F - 64.4 °F 69% 30.09 in 6.2 mi NNE 12.7 mph - N/A   Partly Cloudy